Location: Lombard
(41.8800°N, 88.0080°W)
Time: 23:59:35
(UTC-05:00)

Tiros 1 - Pass Details

Date: 28 January 2023
Orbit: 628 x 662 km, 48.4° (Epoch: 20 March)

Event Time Altitude Azimuth Distance (km) Brightness Sun altitude
Rises 07:03:49 0° 296° (WNW) 2,949 - -1.6°
Exits shadow 07:04:18 - 297° (WNW) 2,762 9.7 -1.6°
Reaches altitude 10° 07:06:10 10° 301° (WNW) 2,044 9.1 -1.2°
Maximum altitude 07:10:50 59° 21° (NNE) 750 7.5 -0.4°
Drops below altitude 10° 07:15:32 10° 101° (ESE) 2,060 11.6 0.4°
Sets 07:17:55 0° 105° (ESE) 2,974 12.9 0.8°
